JAL662 RJFO-RJTT

Flight info

Callsign JAL662
Flight time 1h 3m
Altitude 37000
Route FIATO Y61 KTE Y33 SHOOT Y71 XAC
Aircraft B738/M-SDE2E3FGHIRWXY/LB1

Departure

Time 2026-04-25 01:59
Airport Oita Airport (RJFO)

Arrival

Time 2026-04-25 03:02
Airport Tokyo Haneda International Airport (RJTT)
Time Latitude Longitude Altitude Speed Heading
2026-04-25 01:41 33.47640 131.73344 26 ft 0 kts 270°
2026-04-25 01:51 33.47640 131.73366 26 ft 4 kts 272°
2026-04-25 01:51 33.47638 131.73398 27 ft 4 kts 274°
2026-04-25 01:52 33.47636 131.73431 27 ft 4 kts 277°
2026-04-25 01:52 33.47631 131.73462 26 ft 4 kts 283°
2026-04-25 01:52 33.47623 131.73492 29 ft 4 kts 303°
2026-04-25 01:52 33.47607 131.73508 29 ft 2 kts 360°
2026-04-25 01:53 33.47602 131.73508 29 ft 0 kts
2026-04-25 01:55 33.47609 131.73508 26 ft 4 kts
2026-04-25 01:55 33.47667 131.73509 28 ft 13 kts
2026-04-25 01:55 33.47766 131.73511 26 ft 14 kts
2026-04-25 01:55 33.47865 131.73513 27 ft 14 kts 358°
2026-04-25 01:56 33.47959 131.73512 27 ft 13 kts
2026-04-25 01:56 33.48056 131.73513 27 ft 16 kts 360°
2026-04-25 01:56 33.48197 131.73513 27 ft 23 kts 358°
2026-04-25 01:56 33.48361 131.73515 23 ft 23 kts
2026-04-25 01:57 33.48672 131.73519 20 ft 22 kts
2026-04-25 01:57 33.48816 131.73520 20 ft 18 kts
2026-04-25 01:57 33.48878 131.73620 21 ft 15 kts 90°
2026-04-25 01:58 33.48873 131.73709 24 ft 7 kts 118°
2026-04-25 01:58 33.48848 131.73718 23 ft 4 kts 193°
2026-04-25 01:58 33.48834 131.73717 24 ft 0 kts 180°
2026-04-25 01:58 33.48804 131.73716 23 ft 24 kts 181°
2026-04-25 01:59 33.48374 131.73713 26 ft 98 kts 180°
2026-04-25 01:59 33.47473 131.73704 37 ft 157 kts 180°
2026-04-25 01:59 33.46368 131.73681 701 ft 160 kts 179°
2026-04-25 01:59 33.45294 131.73996 1387 ft 163 kts 137°
2026-04-25 02:00 33.44739 131.75169 1991 ft 171 kts 111°
2026-04-25 02:00 33.44243 131.76606 2292 ft 200 kts 113°
2026-04-25 02:00 33.43666 131.78213 2524 ft 223 kts 112°
2026-04-25 02:00 33.43296 131.80074 2899 ft 238 kts 100°
2026-04-25 02:01 33.43078 131.82132 3243 ft 257 kts 92°
2026-04-25 02:01 33.43529 131.84212 4000 ft 263 kts 63°
2026-04-25 02:01 33.44433 131.86111 4908 ft 263 kts 60°
2026-04-25 02:01 33.45360 131.87982 5697 ft 266 kts 60°
2026-04-25 02:02 33.46307 131.89893 6526 ft 267 kts 60°
2026-04-25 02:02 33.47255 131.91821 7298 ft 270 kts 60°
2026-04-25 02:02 33.48214 131.93789 8007 ft 275 kts 60°
2026-04-25 02:02 33.49183 131.95792 8715 ft 279 kts 60°
2026-04-25 02:03 33.50161 131.97827 9461 ft 283 kts 61°
2026-04-25 02:03 33.51148 131.99887 10178 ft 288 kts 61°
2026-04-25 02:03 33.52160 132.02008 10448 ft 308 kts 61°
2026-04-25 02:03 33.53245 132.04290 10883 ft 319 kts 61°
2026-04-25 02:04 33.54356 132.06629 11544 ft 324 kts 60°
2026-04-25 02:04 33.55477 132.08991 12258 ft 327 kts 60°
2026-04-25 02:04 33.56607 132.11376 12957 ft 332 kts 60°
2026-04-25 02:04 33.57753 132.13798 13699 ft 336 kts 60°
2026-04-25 02:05 33.58917 132.16260 14335 ft 342 kts 60°
2026-04-25 02:05 33.60104 132.18773 14873 ft 350 kts 60°
2026-04-25 02:05 33.61302 132.21310 15456 ft 358 kts 59°
2026-04-25 02:05 33.62545 132.23944 16049 ft 365 kts 59°
2026-04-25 02:06 33.63807 132.26622 16633 ft 372 kts 59°
2026-04-25 02:06 33.65096 132.29357 17207 ft 380 kts 59°
2026-04-25 02:06 33.66409 132.32147 17770 ft 387 kts 58°
2026-04-25 02:06 33.67748 132.34992 18323 ft 395 kts 58°
2026-04-25 02:07 33.69108 132.37887 18836 ft 401 kts 58°
2026-04-25 02:07 33.70482 132.40816 19416 ft 404 kts 58°
2026-04-25 02:07 33.71874 132.43785 19989 ft 408 kts 58°
2026-04-25 02:07 33.73273 132.46774 20536 ft 413 kts 58°
2026-04-25 02:08 33.74692 132.49806 21067 ft 417 kts 59°
2026-04-25 02:08 33.76121 132.52862 21595 ft 422 kts 59°
2026-04-25 02:08 33.77547 132.55913 22117 ft 426 kts 59°
2026-04-25 02:08 33.79001 132.59029 22639 ft 430 kts 59°
2026-04-25 02:09 33.80477 132.62194 23149 ft 434 kts 59°
2026-04-25 02:09 33.81960 132.65376 23659 ft 438 kts 59°
2026-04-25 02:09 33.83456 132.68590 24068 ft 443 kts 59°
2026-04-25 02:09 33.84970 132.71844 24451 ft 448 kts 59°
2026-04-25 02:10 33.86506 132.75148 24822 ft 453 kts 59°
2026-04-25 02:10 33.88052 132.78479 25191 ft 459 kts 59°
2026-04-25 02:10 33.89618 132.81855 25569 ft 464 kts 59°
2026-04-25 02:10 33.91196 132.85262 25951 ft 468 kts 59°
2026-04-25 02:11 33.92772 132.88665 26301 ft 473 kts 59°
2026-04-25 02:11 33.94381 132.92146 26659 ft 477 kts 59°
2026-04-25 02:11 33.96003 132.95659 27050 ft 482 kts 59°
2026-04-25 02:11 33.97640 132.99204 27365 ft 486 kts 59°
2026-04-25 02:12 33.99293 133.02787 27696 ft 491 kts 59°
2026-04-25 02:12 34.00862 133.06483 28019 ft 497 kts 65°
2026-04-25 02:12 34.02011 133.10431 28320 ft 501 kts 75°
2026-04-25 02:12 34.02879 133.14459 28647 ft 505 kts 77°
2026-04-25 02:13 34.03713 133.18603 28946 ft 510 kts 77°
2026-04-25 02:13 34.04550 133.22774 29226 ft 514 kts 77°
2026-04-25 02:13 34.05416 133.26993 29511 ft 519 kts 77°
2026-04-25 02:13 34.06310 133.31236 29816 ft 523 kts 76°
2026-04-25 02:14 34.07221 133.35498 30125 ft 526 kts 76°
2026-04-25 02:14 34.08140 133.39779 30397 ft 529 kts 76°
2026-04-25 02:14 34.09065 133.44096 30644 ft 533 kts 77°
2026-04-25 02:14 34.09980 133.48395 30888 ft 536 kts 77°
2026-04-25 02:15 34.10890 133.52680 31124 ft 539 kts 77°
2026-04-25 02:15 34.11825 133.57089 31350 ft 542 kts 77°
2026-04-25 02:15 34.12766 133.61524 31569 ft 545 kts 77°
2026-04-25 02:15 34.13706 133.65969 31788 ft 548 kts 78°
2026-04-25 02:16 34.14640 133.70390 32020 ft 551 kts 78°
2026-04-25 02:16 34.15589 133.74888 32252 ft 553 kts 78°
2026-04-25 02:16 34.16545 133.79429 32488 ft 556 kts 78°
2026-04-25 02:16 34.17491 133.83956 32779 ft 556 kts 79°
2026-04-25 02:17 34.18417 133.88490 33118 ft 556 kts 79°
2026-04-25 02:17 34.19330 133.93020 33421 ft 556 kts 80°
2026-04-25 02:17 34.20245 133.97573 33672 ft 557 kts 80°
2026-04-25 02:17 34.21162 134.02118 33953 ft 558 kts 80°
2026-04-25 02:18 34.22085 134.06683 34233 ft 558 kts 80°
2026-04-25 02:18 34.22997 134.11194 34497 ft 558 kts 80°
2026-04-25 02:18 34.23917 134.15746 34763 ft 558 kts 79°
2026-04-25 02:18 34.24834 134.20297 35016 ft 558 kts 79°
2026-04-25 02:19 34.25751 134.24861 35229 ft 559 kts 79°
2026-04-25 02:19 34.26671 134.29450 35461 ft 560 kts 79°
2026-04-25 02:19 34.27588 134.34031 35720 ft 560 kts 79°
2026-04-25 02:19 34.28501 134.38609 35965 ft 560 kts 79°
2026-04-25 02:20 34.29418 134.43213 36158 ft 561 kts 79°
2026-04-25 02:20 34.30319 134.47747 36361 ft 562 kts 79°
2026-04-25 02:20 34.31229 134.52335 36582 ft 562 kts 79°
2026-04-25 02:20 34.32143 134.56953 36807 ft 562 kts 79°
2026-04-25 02:21 34.33054 134.61564 37013 ft 562 kts 79°
2026-04-25 02:21 34.33961 134.66166 37183 ft 563 kts 78°
2026-04-25 02:21 34.34871 134.70796 37190 ft 566 kts 78°
2026-04-25 02:22 34.36681 134.80027 37194 ft 566 kts 78°
2026-04-25 02:22 34.38477 134.89278 37189 ft 560 kts 79°
2026-04-25 02:23 34.40028 134.98522 37196 ft 558 kts 82°
2026-04-25 02:23 34.41450 135.07637 37182 ft 558 kts 82°
2026-04-25 02:24 34.42908 135.16826 37181 ft 558 kts 81°
2026-04-25 02:24 34.44395 135.26047 37189 ft 558 kts 81°
2026-04-25 02:25 34.45883 135.35285 37186 ft 559 kts 81°
2026-04-25 02:25 34.47363 135.44547 37184 ft 560 kts 81°
2026-04-25 02:26 34.48831 135.53792 37163 ft 562 kts 81°
2026-04-25 02:26 34.50306 135.63123 37158 ft 564 kts 81°
2026-04-25 02:27 34.51778 135.72490 37157 ft 564 kts 81°
2026-04-25 02:27 34.53234 135.81852 37157 ft 565 kts 81°
2026-04-25 02:28 34.54678 135.91190 37154 ft 566 kts 81°
2026-04-25 02:28 34.55883 135.99001 37166 ft 567 kts 81°
2026-04-25 02:29 34.57326 136.08427 37165 ft 566 kts 81°
2026-04-25 02:29 34.58760 136.17825 37172 ft 564 kts 81°
2026-04-25 02:30 34.60177 136.27114 37174 ft 561 kts 81°
2026-04-25 02:30 34.61605 136.36424 37193 ft 559 kts 81°
2026-04-25 02:31 34.62966 136.45358 37202 ft 559 kts 81°
2026-04-25 02:31 34.64364 136.54605 37189 ft 559 kts 81°
2026-04-25 02:32 34.65766 136.63929 37191 ft 560 kts 81°
2026-04-25 02:32 34.67159 136.73250 37186 ft 561 kts 81°
2026-04-25 02:33 34.68547 136.82579 37189 ft 561 kts 81°
2026-04-25 02:33 34.69930 136.91923 37190 ft 562 kts 81°
2026-04-25 02:34 34.70739 137.01281 37196 ft 558 kts 92°
2026-04-25 02:34 34.70793 137.10711 37184 ft 558 kts 94°
2026-04-25 02:35 34.70800 137.20178 37181 ft 560 kts 94°
2026-04-25 02:35 34.70869 137.29643 37193 ft 560 kts 93°
2026-04-25 02:36 34.70966 137.39072 37185 ft 560 kts 93°
2026-04-25 02:36 34.71059 137.48546 37189 ft 560 kts 93°
2026-04-25 02:37 34.71137 137.58007 37193 ft 559 kts 93°
2026-04-25 02:37 34.71205 137.67464 37201 ft 558 kts 93°
2026-04-25 02:38 34.71266 137.76844 37195 ft 558 kts 93°
2026-04-25 02:38 34.71319 137.86356 36199 ft 570 kts 94°
2026-04-25 02:38 34.71344 137.91122 35693 ft 568 kts 94°
2026-04-25 02:39 34.71369 137.95949 35033 ft 570 kts 94°
2026-04-25 02:39 34.71391 138.00761 34421 ft 571 kts 94°
2026-04-25 02:39 34.71412 138.05584 33699 ft 572 kts 94°
2026-04-25 02:39 34.71434 138.10436 32979 ft 573 kts 94°
2026-04-25 02:40 34.71458 138.15282 32312 ft 573 kts 94°
2026-04-25 02:40 34.71482 138.20122 31627 ft 573 kts 94°
2026-04-25 02:40 34.71504 138.24982 30956 ft 572 kts 94°
2026-04-25 02:40 34.71525 138.29799 30465 ft 568 kts 94°
2026-04-25 02:41 34.71543 138.34517 29888 ft 564 kts 94°
2026-04-25 02:41 34.71558 138.39272 29325 ft 558 kts 94°
2026-04-25 02:41 34.71571 138.43961 28782 ft 552 kts 94°
2026-04-25 02:41 34.71581 138.48601 28259 ft 545 kts 94°
2026-04-25 02:42 34.71589 138.53185 27747 ft 539 kts 93°
2026-04-25 02:42 34.71595 138.57746 27240 ft 533 kts 93°
2026-04-25 02:42 34.71600 138.62227 26737 ft 527 kts 93°
2026-04-25 02:42 34.71602 138.66661 26236 ft 522 kts 93°
2026-04-25 02:43 34.71603 138.70997 25737 ft 516 kts 92°
2026-04-25 02:43 34.71603 138.75349 25236 ft 512 kts 92°
2026-04-25 02:43 34.71602 138.79649 24716 ft 507 kts 92°
2026-04-25 02:43 34.71593 138.83916 24208 ft 502 kts 92°
2026-04-25 02:44 34.71571 138.88151 23685 ft 497 kts 92°
2026-04-25 02:44 34.71547 138.92324 23140 ft 491 kts 92°
2026-04-25 02:44 34.71523 138.96451 22614 ft 484 kts 92°
2026-04-25 02:44 34.71609 139.00528 22102 ft 479 kts 86°
2026-04-25 02:45 34.72140 139.04448 21631 ft 473 kts 78°
2026-04-25 02:45 34.72870 139.08325 21131 ft 467 kts 77°
2026-04-25 02:45 34.73617 139.12142 20642 ft 461 kts 77°
2026-04-25 02:45 34.74352 139.15907 20167 ft 455 kts 77°
2026-04-25 02:46 34.75122 139.19617 19691 ft 448 kts 74°
2026-04-25 02:46 34.76013 139.23202 19218 ft 438 kts 73°
2026-04-25 02:46 34.76930 139.26704 18749 ft 429 kts 72°
2026-04-25 02:46 34.77846 139.30147 18266 ft 425 kts 72°
2026-04-25 02:47 34.78757 139.33552 17736 ft 421 kts 72°
2026-04-25 02:47 34.79656 139.36921 17232 ft 417 kts 72°
2026-04-25 02:47 34.80531 139.40227 16726 ft 413 kts 72°
2026-04-25 02:47 34.81398 139.43535 16225 ft 409 kts 72°
2026-04-25 02:48 34.82249 139.46818 15736 ft 404 kts 72°
2026-04-25 02:48 34.83082 139.50072 15253 ft 399 kts 72°
2026-04-25 02:48 34.83884 139.53244 14762 ft 385 kts 72°
2026-04-25 02:48 34.84646 139.56312 14284 ft 372 kts 72°
2026-04-25 02:49 34.85367 139.59294 13792 ft 361 kts 72°
2026-04-25 02:49 34.86054 139.62193 13263 ft 352 kts 72°
2026-04-25 02:49 34.86721 139.65021 12746 ft 343 kts 72°
2026-04-25 02:49 34.87410 139.67769 12228 ft 334 kts 65°
2026-04-25 02:50 34.88645 139.70099 11716 ft 323 kts 47°
2026-04-25 02:50 34.90195 139.72042 11160 ft 317 kts 40°
2026-04-25 02:50 34.92011 139.73460 10645 ft 310 kts 25°
2026-04-25 02:50 34.93928 139.74528 10426 ft 295 kts 23°
2026-04-25 02:51 34.95781 139.75503 10169 ft 284 kts 22°
2026-04-25 02:51 34.97563 139.76430 9901 ft 273 kts 22°
2026-04-25 02:51 34.99287 139.77323 9619 ft 265 kts 22°
2026-04-25 02:51 35.00994 139.78208 9219 ft 268 kts 21°
2026-04-25 02:52 35.02766 139.78754 8947 ft 264 kts
2026-04-25 02:52 35.04578 139.78993 8682 ft 259 kts
2026-04-25 02:52 35.06355 139.79197 8423 ft 254 kts
2026-04-25 02:52 35.08103 139.79418 8179 ft 251 kts
2026-04-25 02:53 35.09830 139.79658 7921 ft 247 kts
2026-04-25 02:53 35.11524 139.79911 7670 ft 244 kts
2026-04-25 02:53 35.13197 139.80172 7427 ft 241 kts
2026-04-25 02:53 35.14854 139.80438 7184 ft 238 kts
2026-04-25 02:54 35.16486 139.80703 6932 ft 236 kts
2026-04-25 02:54 35.18119 139.80970 6703 ft 237 kts
2026-04-25 02:54 35.19755 139.81238 6450 ft 237 kts
2026-04-25 02:54 35.21363 139.81154 6260 ft 233 kts 346°
2026-04-25 02:55 35.22930 139.80632 6020 ft 236 kts 345°
2026-04-25 02:55 35.24527 139.80110 5750 ft 240 kts 345°
2026-04-25 02:55 35.26155 139.79586 5469 ft 242 kts 346°
2026-04-25 02:55 35.27359 139.79201 5278 ft 237 kts 346°
2026-04-25 02:56 35.28886 139.78713 4998 ft 229 kts 346°
2026-04-25 02:56 35.30407 139.78229 4709 ft 222 kts 347°
2026-04-25 02:56 35.31899 139.78216 4419 ft 210 kts 20°
2026-04-25 02:56 35.33170 139.78974 4218 ft 199 kts 33°
2026-04-25 02:57 35.34295 139.79859 3993 ft 190 kts 35°
2026-04-25 02:57 35.35394 139.80735 3761 ft 187 kts 35°
2026-04-25 02:57 35.36480 139.81591 3539 ft 183 kts 35°
2026-04-25 02:57 35.37544 139.82424 3319 ft 180 kts 36°
2026-04-25 02:58 35.38600 139.83250 3106 ft 180 kts 35°
2026-04-25 02:58 35.39658 139.84074 2897 ft 180 kts 34°
2026-04-25 02:58 35.40688 139.84870 2674 ft 169 kts 32°
2026-04-25 02:58 35.41803 139.85125 2495 ft 162 kts 359°
2026-04-25 02:59 35.42961 139.85090 2334 ft 171 kts
2026-04-25 02:59 35.44143 139.85113 2104 ft 172 kts
2026-04-25 02:59 35.44700 139.84968 1967 ft 175 kts 337°
2026-04-25 02:59 35.45657 139.84109 1819 ft 171 kts 331°
2026-04-25 03:00 35.46708 139.83556 1620 ft 165 kts 338°
2026-04-25 03:00 35.47662 139.82830 1397 ft 158 kts 332°
2026-04-25 03:00 35.48576 139.82189 1187 ft 153 kts 334°
2026-04-25 03:00 35.49484 139.81547 984 ft 152 kts 334°
2026-04-25 03:01 35.50400 139.80893 773 ft 151 kts 333°
2026-04-25 03:01 35.51295 139.80255 595 ft 149 kts 333°
2026-04-25 03:01 35.52145 139.79650 426 ft 151 kts 332°
2026-04-25 03:01 35.53045 139.79006 192 ft 149 kts 332°
2026-04-25 03:02 35.53918 139.78383 31 ft 140 kts 330°
2026-04-25 03:02 35.54660 139.77858 20 ft 96 kts 330°
2026-04-25 03:02 35.55049 139.77636 19 ft 49 kts 351°
2026-04-25 03:02 35.55316 139.77627 21 ft 28 kts 356°
2026-04-25 03:03 35.55482 139.77529 22 ft 26 kts 330°
2026-04-25 03:03 35.55601 139.77468 23 ft 16 kts 19°
2026-04-25 03:03 35.55682 139.77516 21 ft 10 kts 356°
2026-04-25 03:03 35.55702 139.77532 21 ft 4 kts 60°
2026-04-25 03:04 35.55736 139.77604 21 ft 11 kts 60°
2026-04-25 03:04 35.55771 139.77679 23 ft 8 kts 60°
2026-04-25 03:04 35.55779 139.77695 23 ft 0 kts 59°